| time (UTC) | temp C | wind direction | speed KPH | gust KPH | rain 1hr cm | rain 24hr cm | rain mn cm | humidity % | barometer mb |
| 20260906140008 | 21 | 22 | 1.6 | 8.0 | 0.00 | 0.00 | 0.00 | 85 | 1020.8 |
| 20260906134604 | 20 | 99 | 3.2 | 8.0 | 0.00 | 0.00 | 0.00 | 87 | 1020.9 |
| 20260906133105 | 19 | 345 | 0.0 | 3.2 | 0.00 | 0.00 | 0.00 | 89 | 1020.9 |
| 20260906131519 | 18 | 345 | 1.6 | 3.2 | 0.00 | 0.00 | 0.00 | 91 | 1020.9 |
| 20260906130115 | 17 | 333 | 0.0 | 0.0 | 0.00 | 0.00 | 0.00 | 92 | 1021.0 |
| 20260906124538 | 17 | 333 | 0.0 | 0.0 | 0.00 | 0.00 | 0.00 | 91 | 1020.9 |
| 20260906123002 | 17 | 333 | 0.0 | 0.0 | 0.00 | 0.00 | 0.00 | 91 | 1020.6 |
| 20260906121547 | 17 | 333 | 0.0 | 0.0 | 0.00 | 0.00 | 0.00 | 92 | 1020.5 |
| 20260906120054 | 17 | 334 | 0.0 | 0.0 | 0.00 | 0.00 | 0.00 | 92 | 1020.5 |
| 20260906114535 | 16 | 360 | 0.0 | 0.0 | 0.00 | 0.00 | 0.00 | 92 | 1020.2 |
| 20260906113056 | 16 | 360 | 0.0 | 0.0 | 0.00 | 0.00 | 0.00 | 92 | 1019.9 |
| 20260906111529 | 17 | 335 | 0.0 | 0.0 | 0.00 | 0.00 | 0.00 | 92 | 1019.8 |
| 20260906110106 | 17 | 334 | 0.0 | 0.0 | 0.00 | 0.00 | 0.00 | 91 | 1019.8 |
| 20260906104517 | 17 | 334 | 0.0 | 3.2 | 0.00 | 0.00 | 0.00 | 91 | 1019.7 |
| 20260906103028 | 17 | 334 | 0.0 | 0.0 | 0.00 | 0.00 | 0.00 | 92 | 1019.5 |
| 20260906101508 | 17 | 334 | 0.0 | 3.2 | 0.00 | 0.00 | 0.00 | 92 | 1019.4 |
| 20260906100035 | 17 | 333 | 0.0 | 6.4 | 0.00 | 0.00 | 0.00 | 92 | 1019.6 |
| 20260906094602 | 17 | 80 | 0.0 | 3.2 | 0.00 | 0.00 | 0.00 | 92 | 1019.6 |
| 20260906093026 | 17 | 82 | 0.0 | 3.2 | 0.00 | 0.00 | 0.00 | 93 | 1019.6 |
| 20260906091603 | 17 | 81 | 0.0 | 0.0 | 0.00 | 0.00 | 0.00 | 92 | 1019.4 |
| 20260906090037 | 17 | 82 | 0.0 | 0.0 | 0.00 | 0.00 | 0.00 | 93 | 1019.3 |
| 20260906084552 | 17 | 82 | 0.0 | 1.6 | 0.00 | 0.00 | 0.00 | 93 | 1019.3 |
| 20260906083037 | 17 | 81 | 0.0 | 1.6 | 0.00 | 0.00 | 0.00 | 93 | 1019.3 |
| 20260906081559 | 17 | 81 | 0.0 | 0.0 | 0.00 | 0.00 | 0.00 | 93 | 1019.2 |
| 20260906080028 | 17 | 81 | 0.0 | 0.0 | 0.00 | 0.00 | 0.00 | 92 | 1019.2 |
| 20260906074604 | 17 | 78 | 0.0 | 0.0 | 0.00 | 0.00 | 0.00 | 92 | 1019.2 |
| 20260906073027 | 17 | 78 | 0.0 | 0.0 | 0.00 | 0.00 | 0.00 | 92 | 1019.0 |
| 20260906071509 | 17 | 76 | 0.0 | 0.0 | 0.00 | 0.00 | 0.00 | 91 | 1019.2 |
| 20260906070035 | 17 | 75 | 0.0 | 0.0 | 0.00 | 0.00 | 0.00 | 91 | 1019.4 |
| 20260906064600 | 17 | 73 | 0.0 | 0.0 | 0.00 | 0.00 | 0.00 | 90 | 1019.3 |
| 20260906063041 | 17 | 71 | 0.0 | 0.0 | 0.00 | 0.00 | 0.00 | 89 | 1019.5 |
| 20260906061552 | 18 | 71 | 0.0 | 0.0 | 0.00 | 0.00 | 0.00 | 89 | 1019.4 |
| 20260906060027 | 18 | 70 | 0.0 | 0.0 | 0.00 | 0.00 | 0.00 | 89 | 1019.4 |
| 20260906054550 | 18 | 70 | 0.0 | 0.0 | 0.00 | 0.00 | 0.00 | 89 | 1019.2 |
| 20260906053015 | 18 | 70 | 0.0 | 0.0 | 0.00 | 0.00 | 0.00 | 88 | 1019.2 |
| 20260906051542 | 18 | 70 | 0.0 | 0.0 | 0.00 | 0.00 | 0.00 | 88 | 1019.2 |
| 20260906050059 | 18 | 70 | 0.0 | 0.0 | 0.00 | 0.00 | 0.00 | 87 | 1018.9 |
| 20260906044512 | 18 | 70 | 0.0 | 1.6 | 0.00 | 0.00 | 0.00 | 89 | 1018.9 |
| 20260906043038 | 18 | 70 | 0.0 | 1.6 | 0.00 | 0.00 | 0.00 | 90 | 1018.8 |
| 20260906041603 | 18 | 70 | 0.0 | 0.0 | 0.00 | 0.00 | 0.00 | 90 | 1018.6 |
| 20260906040039 | 18 | 69 | 0.0 | 0.0 | 0.00 | 0.00 | 0.00 | 89 | 1018.4 |
| 20260906034514 | 19 | 360 | 0.0 | 0.0 | 0.00 | 0.00 | 0.00 | 88 | 1018.4 |
| 20260906033107 | 20 | 360 | 0.0 | 0.0 | 0.00 | 0.00 | 0.00 | 88 | 1018.5 |
| 20260906031535 | 20 | 81 | 0.0 | 0.0 | 0.00 | 0.00 | 0.00 | 87 | 1018.3 |
| 20260906030015 | 20 | 71 | 0.0 | 1.6 | 0.00 | 0.00 | 0.00 | 86 | 1018.2 |
| 20260906024532 | 20 | 71 | 0.0 | 3.2 | 0.00 | 0.00 | 0.00 | 86 | 1017.9 |
| 20260906023012 | 20 | 71 | 0.0 | 3.2 | 0.00 | 0.00 | 0.00 | 87 | 1017.7 |
| 20260906021555 | 20 | 71 | 0.0 | 3.2 | 0.00 | 0.00 | 0.00 | 86 | 1017.5 |
| 20260906020109 | 21 | 73 | 0.0 | 3.2 | 0.00 | 0.00 | 0.00 | 86 | 1017.5 |
| 20260906014542 | 21 | 98 | 1.6 | 6.4 | 0.00 | 0.00 | 0.00 | 86 | 1017.4 |
| 20260906013002 | 21 | 78 | 0.0 | 3.2 | 0.00 | 0.00 | 0.00 | 86 | 1017.4 |
| 20260906011525 | 21 | 57 | 0.0 | 0.0 | 0.00 | 0.00 | 0.00 | 85 | 1017.3 |
| 20260906010004 | 22 | 55 | 0.0 | 3.2 | 0.00 | 0.00 | 0.00 | 84 | 1017.2 |
| 20260906004532 | 22 | 50 | 0.0 | 3.2 | 0.00 | 0.00 | 0.00 | 83 | 1017.2 |
| 20260906003046 | 22 | 49 | 0.0 | 3.2 | 0.00 | 0.00 | 0.00 | 81 | 1017.2 |
| 20260906001515 | 23 | 43 | 0.0 | 6.4 | 0.00 | 0.00 | 0.00 | 80 | 1017.3 |
| 20260906000056 | 23 | 34 | 1.6 | 6.4 | 0.00 | 0.00 | 0.00 | 79 | 1017.1 |
| 20260905234517 | 23 | 34 | 1.6 | 8.0 | 0.00 | 0.00 | 0.00 | 78 | 1016.9 |
| 20260905233100 | 24 | 40 | 3.2 | 8.0 | 0.00 | 0.00 | 0.00 | 78 | 1017.0 |
| 20260905231524 | 25 | 13 | 1.6 | 6.4 | 0.00 | 0.00 | 0.00 | 77 | 1017.0 |
| 20260905230001 | 25 | 16 | 1.6 | 6.4 | 0.00 | 0.00 | 0.00 | 75 | 1017.0 |
| 20260905224548 | 25 | 40 | 3.2 | 11.3 | 0.00 | 0.00 | 0.00 | 77 | 1016.6 |
| 20260905223008 | 25 | 355 | 3.2 | 8.0 | 0.00 | 0.00 | 0.00 | 77 | 1016.7 |
| 20260905221536 | 25 | 321 | 0.0 | 8.0 | 0.00 | 0.00 | 0.00 | 78 | 1016.7 |
| 20260905214542 | 25 | 9 | 1.6 | 9.7 | 0.00 | 0.00 | 0.00 | 76 | 1016.5 |
| 20260905213100 | 25 | 21 | 3.2 | 8.0 | 0.00 | 0.00 | 0.00 | 77 | 1016.5 |
| 20260905211548 | 26 | 307 | 3.2 | 9.7 | 0.00 | 0.00 | 0.00 | 75 | 1016.4 |
| 20260905210108 | 25 | 321 | 1.6 | 9.7 | 0.00 | 0.00 | 0.00 | 76 | 1016.2 |
| 20260905204538 | 26 | 316 | 1.6 | 8.0 | 0.00 | 0.00 | 0.00 | 74 | 1016.2 |
| 20260905203015 | 26 | 329 | 1.6 | 8.0 | 0.00 | 0.00 | 0.00 | 75 | 1016.2 |
| 20260905201556 | 26 | 355 | 1.6 | 16.1 | 0.00 | 0.00 | 0.00 | 75 | 1016.2 |
| 20260905200032 | 25 | 333 | 3.2 | 11.3 | 0.00 | 0.00 | 0.00 | 77 | 1016.4 |
| 20260905194607 | 25 | 360 | 3.2 | 14.5 | 0.00 | 0.00 | 0.00 | 79 | 1016.6 |
| 20260905193031 | 25 | 302 | 1.6 | 11.3 | 0.00 | 0.00 | 0.00 | 80 | 1016.7 |
| 20260905191559 | 25 | 331 | 4.8 | 11.3 | 0.00 | 0.00 | 0.00 | 80 | 1016.7 |
| 20260905190017 | 24 | 344 | 3.2 | 9.7 | 0.00 | 0.00 | 0.00 | 81 | 1016.8 |
| 20260905184607 | 24 | 5 | 1.6 | 8.0 | 0.00 | 0.00 | 0.00 | 80 | 1016.9 |
| 20260905183025 | 24 | 315 | 3.2 | 9.7 | 0.00 | 0.00 | 0.00 | 82 | 1017.0 |
| 20260905181535 | 23 | 344 | 1.6 | 3.2 | 0.00 | 0.00 | 0.00 | 84 | 1017.0 |
| 20260905180007 | 23 | 306 | 1.6 | 8.0 | 0.00 | 0.00 | 0.00 | 85 | 1017.0 |
| 20260905174550 | 23 | 305 | 4.8 | 11.3 | 0.00 | 0.00 | 0.00 | 85 | 1016.9 |
| 20260905173028 | 23 | 328 | 0.0 | 6.4 | 0.00 | 0.00 | 0.00 | 86 | 1017.1 |
| 20260905171551 | 23 | 12 | 0.0 | 3.2 | 0.00 | 0.00 | 0.00 | 86 | 1017.1 |
| 20260905170014 | 23 | 12 | 0.0 | 3.2 | 0.00 | 0.00 | 0.00 | 86 | 1017.2 |
| 20260905164538 | 22 | 355 | 1.6 | 9.7 | 0.00 | 0.00 | 0.00 | 87 | 1017.2 |
| 20260905163014 | 22 | 336 | 1.6 | 6.4 | 0.00 | 0.00 | 0.00 | 89 | 1017.2 |
| 20260905161600 | 22 | 355 | 0.0 | 6.4 | 0.00 | 0.00 | 0.00 | 89 | 1017.3 |
| 20260905160028 | 22 | 316 | 1.6 | 9.7 | 0.00 | 0.15 | 0.00 | 89 | 1017.4 |
| 20260905154501 | 22 | 344 | 1.6 | 6.4 | 0.00 | 0.15 | 0.00 | 90 | 1017.1 |
| 20260905153023 | 22 | 355 | 1.6 | 6.4 | 0.00 | 0.15 | 0.00 | 90 | 1017.1 |
| 20260905151505 | 22 | 355 | 1.6 | 4.8 | 0.00 | 0.15 | 0.00 | 91 | 1016.9 |
| 20260905150030 | 22 | 73 | 1.6 | 6.4 | 0.00 | 0.30 | 0.00 | 92 | 1016.9 |
| 20260905144558 | 21 | 85 | 0.0 | 3.2 | 0.00 | 0.30 | 0.00 | 93 | 1016.6 |
| 20260905143037 | 21 | 76 | 6.4 | 9.7 | 0.00 | 0.30 | 0.00 | 93 | 1016.3 |
| 20260905141551 | 21 | 77 | 0.0 | 3.2 | 0.00 | 0.30 | 0.00 | 94 | 1016.4 |